Regional Weather Roundup
Issued by NWS Cleveland, OH

Home | Current Version | Previous Version | Graphics & Text | Print | Product List | Glossary On
Versions: 1 2 3 4 5 6 7 8 9 10 11 12 13 14 15 16 17 18 19 20 21 22 23 24 25 26 27 28 29 30 31 32 33 34 35 36 37 38 39 40 41 42 43 44 45 46 47 48 49 50
625
ASUS41 KCLE 160902
RWRCLE
OHIO REGIONAL WEATHER ROUNDUP
NATIONAL WEATHER SERVICE CLEVELAND, OH
500 AM EDT WED AUG 16 2017

NOTE: "FAIR" INDICATES FEW OR NO CLOUDS BELOW 12,000 FEET WITH NO
SIGNIFICANT WEATHER AND/OR OBSTRUCTIONS TO VISIBILITY.

OHZ001>008-015>018-024>027-034-035-043-044-161000-
   NORTHWEST OHIO

CITY           SKY/WX    TMP DP  RH WIND       PRES   REMARKS
DEFIANCE       CLEAR     65  62  90 CALM      30.01F
FINDLAY        CLEAR     67  62  84 E3        30.01R
TOLEDO EXPRESS PTCLDY    63  63 100 CALM      30.02R FOG
TOLEDO EXEC    CLEAR     67  67 100 CALM      30.03R FOG
LIMA           CLEAR     64  64 100 E3        30.01S
$$

OHZ009>014-019>023-028>033-038-089-161000-
   NORTHEAST OHIO

CITY           SKY/WX    TMP DP  RH WIND       PRES   REMARKS
CLE-HOPKINS    PTCLDY    65  62  90 SE3       30.04S
CLE-LAKEFRONT  CLEAR     69  62  78 CALM      30.01F
CUY CO. ARPT   NOT AVBL
LORAIN-ELYRIA  FOG       59  55  87 CALM      30.04R VSB 3/4
ASHTABULA      CLEAR     57  57 100 CALM      30.05R
AKRON-CANTON   CLEAR     64  60  87 NE5       30.03S
WOOSTER        CLEAR     59  58  96 CALM      30.05R FOG
MANSFIELD      CLEAR     65  62  90 E3        30.04S
YOUNGSTOWN     PTCLDY    61  60  97 CALM      30.04R
$$

OHZ042-051>053-060>062-070>072-077>081-161000-
  SOUTHWEST OHIO

CITY           SKY/WX    TMP DP  RH WIND       PRES   REMARKS
CINC-COVINGTON PTCLDY    68  68 100 CALM      30.01R
CINC-LUNKEN    FOG       67  67 100 CALM      30.00R VSB 1
HAMILTON       CLEAR     66  65  96 CALM      30.01R FOG
DAYTON         MOCLDY    70  67  90 CALM      30.01S
WRIGHT-PAT AFB PTCLDY    69  69 100 CALM      30.00R
DAYTON GENERAL PTCLDY    68  66  93 NE3       30.00R
WILMINGTON     CLEAR     64  64 100 CALM      30.01R FOG
$$

OHZ036-037-039>041-045>050-054>059-063>069-073>076-082>088-161000-
  CENTRAL AND SOUTHEAST OHIO

CITY           SKY/WX    TMP DP  RH WIND       PRES   REMARKS
COLUMBUS       HVY RAIN  72  69  90 CALM      30.00R FOG
OSU AIRPORT    PTCLDY    69  68  96 E3        30.01R
BOLTON FIELD   PTCLDY    68  68 100 S5        30.01S FOG
RICKENBACK AFB PTCLDY    68  68  98 CALM      30.00S
NEWARK         CLOUDY    70  67  90 N3        30.01R
MARION         CLEAR     62  60  93 CALM      30.02S FOG
LANCASTER      CLOUDY    67  66  97 CALM      30.01S FOG
ZANESVILLE     MOCLDY    67  65  93 CALM      30.01S
NEW PHILLY     NOT AVBL
$$




USA.gov is the U.S. government's official web portal to all federal, state and local government web resources and services.